Weather History for KJDN - November, 2012

Change the Weather History Date:

Wednesday, November 21, 2012

  Actual Average Record
Temperature  
Mean Temperature 43 °F 27 °F  
Max Temperature 57 °F 41 °F - ()
Min Temperature 29 °F 14 °F - ()
Degree Days  
Heating Degree Days 22 38  
Month to date heating degree days 630 688  
Since 1 July heating degree days 1447 1661  
Cooling Degree Days 0 0  
Month to date cooling degree days 0 0  
Year to date cooling degree days 728 421  
Moisture  
Dew Point 35 °F    
Average Humidity 68    
Maximum Humidity 92    
Minimum Humidity 43    
Precipitation  
Precipitation 0.00 in 0.01 in - ()
Month to date precipitation 0.74 0.30  
Year to date precipitation 7.69 12.32  
Snow  
Snow 0.00 in - - ()
Month to date snowfall 0.0  
Since 1 July snowfall 0.0  
Since 1 September snowfall 0.0  
Snow Depth 0.00 in    
Sea Level Pressure  
Sea Level Pressure 29.75 in    
Wind  
Wind Speed 7 mph (West)    
Max Wind Speed 28 mph    
Max Gust Speed 35 mph    
T = Trace of Precipitation, MM = Missing Value Source: NWS Daily Summary

Daily Weather History Graph

Daily Weather History Graph

Search for Another Location

Airport or City:

Trip Planner

Search our weather history database for the weather conditions in past years. The results will help you decide how hot, cold, wet, or windy it might be!

Date:

Astronomy

Nov. 21, 2012 Rise Set
Actual Time 7:21 AM MST 4:25 PM MST
Civil Twilight 6:47 AM MST 4:59 PM MST
Nautical Twilight 6:09 AM MST 5:37 PM MST
Astronomical Twilight 5:33 AM MST 6:13 PM MST
Moon 1:06 PM MST (11/21) 12:18 AM MST (11/21)
Length of Visible Light 10h 12m
Length of Day
9h 04m
Waxing Gibbous, 62% of the Moon is Illuminated
Nov 21
Waxing Gibbous
Nov 28
Full
Dec 6
Last Quarter
Dec 13
New
Dec 19
First Quarter

Hourly Weather History & Observations

Time (MST) Temp. Windchill Dew Point Humidity Pressure Visibility Wind Dir Wind Speed Gust Speed Precip Events Conditions
12:48 AM 33.1 °F 28.7 °F 30.0 °F 89% 29.80 in - West 4.6 mph - N/A   Unknown
1:48 AM 34.0 °F 29.8 °F 30.9 °F 89% 29.80 in - West 4.6 mph - N/A   Unknown
2:48 AM 30.9 °F - 28.9 °F 92% 29.79 in - Calm Calm - N/A   Unknown
3:48 AM 32.0 °F - 30.0 °F 92% 29.79 in - Calm Calm - N/A   Unknown
4:48 AM 32.0 °F - 28.9 °F 88% 29.79 in - Calm Calm - N/A   Unknown
5:48 AM 30.0 °F - 28.0 °F 92% 29.77 in - Calm Calm - N/A   Unknown
6:48 AM 32.0 °F - 30.0 °F 92% 29.75 in - Calm Calm - N/A   Unknown
7:48 AM 35.1 °F 32.2 °F 32.0 °F 89% 29.74 in - NE 3.5 mph - N/A   Unknown
8:48 AM 36.0 °F 32.1 °F 33.1 °F 89% 29.70 in - East 4.6 mph - N/A   Unknown
9:48 AM 44.1 °F - 37.0 °F 76% 29.68 in - Calm Calm - N/A   Unknown
10:48 AM 55.0 °F - 34.0 °F 45% 29.64 in - SSW 18.4 mph 25.3 mph N/A   Unknown
11:48 AM 50.0 °F - 37.9 °F 63% 29.68 in - West 16.1 mph - N/A   Unknown
12:48 PM 48.0 °F - 39.0 °F 71% 29.69 in - WNW 17.3 mph - N/A   Unknown
1:48 PM 50.0 °F - 39.9 °F 68% 29.67 in - WNW 9.2 mph - N/A   Unknown
2:48 PM 51.1 °F - 39.0 °F 63% 29.66 in - WSW 5.8 mph - N/A   Unknown
3:48 PM 46.9 °F - 39.0 °F 74% 29.69 in - WNW 6.9 mph - N/A   Unknown
4:48 PM 46.0 °F 44.8 °F 39.0 °F 76% 29.73 in - West 3.5 mph - N/A   Unknown
5:48 PM 44.1 °F - 37.9 °F 79% 29.75 in - Calm Calm - N/A   Unknown
6:48 PM 44.1 °F 39.0 °F 37.9 °F 79% 29.79 in - West 9.2 mph - N/A   Unknown
7:48 PM 44.1 °F 40.1 °F 39.0 °F 82% 29.78 in - WSW 6.9 mph - N/A   Unknown
8:48 PM 43.0 °F 38.2 °F 39.0 °F 86% 29.80 in - West 8.1 mph - N/A   Unknown
9:48 PM 45.0 °F 36.9 °F 34.0 °F 65% 29.82 in - West 20.7 mph 29.9 mph N/A   Unknown
10:48 PM 39.0 °F 32.8 °F 35.1 °F 86% 29.84 in - WNW 9.2 mph - N/A   Unknown
11:48 PM 37.9 °F 30.0 °F 32.0 °F 79% 29.89 in - NW 12.7 mph - N/A   Unknown